• In Romania
  • List of Countries
  • For 7 days
  • Water Temperature
  • Satellite Maps
  • Weather Map
  • Weather Widgets
  • user-avatar
    Login

    Hourly Weather Nadeevo

    Today, 19 July, Thursday

    Time Temperature Precipitation Wind Pressure Humidity
    00:00 +19°C° 0 mm 4 mps 739 mmHg 76%
    01:00 +19°C° 0 mm 4 mps 739 mmHg 76%
    02:00 +19°C° 0 mm 3 mps 739 mmHg 79%
    03:00 +19°C° 0 mm 4 mps 739 mmHg 79%
    04:00 +19°C° 0 mm 4 mps 739 mmHg 78%
    05:00 +19°C° 0 mm 4 mps 739 mmHg 78%
    06:00 +20°C° 0 mm 4 mps 739 mmHg 73%
    07:00 +21°C° 0 mm 5 mps 739 mmHg 69%
    08:00 +23°C° 0 mm 5 mps 739 mmHg 64%
    09:00 +25°C° 0 mm 5 mps 739 mmHg 61%
    10:00 +26°C° 0 mm 5 mps 739 mmHg 57%
    11:00 +27°C° 0 mm 6 mps 738 mmHg 53%
    12:00 +27°C° 0.4 mm 5 mps 738 mmHg 58%
    13:00 +26°C° 0.4 mm 5 mps 738 mmHg 62%
    14:00 +26°C° 0.4 mm 5 mps 738 mmHg 66%
    15:00 +25°C° 0.2 mm 5 mps 738 mmHg 70%
    16:00 +23°C° 0.2 mm 4 mps 738 mmHg 73%
    17:00 +23°C° 0.2 mm 4 mps 738 mmHg 77%
    18:00 +22°C° 0 mm 4 mps 738 mmHg 79%
    19:00 +21°C° 0 mm 4 mps 738 mmHg 80%
    20:00 +21°C° 0 mm 4 mps 738 mmHg 82%
    21:00 +20°C° 0 mm 3 mps 738 mmHg 85%
    22:00 +20°C° 0 mm 3 mps 738 mmHg 87%
    23:00 +19°C° 0 mm 3 mps 738 mmHg 90%

    Tomorrow, 20 July, Friday

    Time Temperature Precipitation Wind Pressure Humidity
    00:00 +19°C° 0 mm 3 mps 738 mmHg 90%
    01:00 +19°C° 0 mm 3 mps 738 mmHg 90%
    02:00 +19°C° 0 mm 4 mps 738 mmHg 90%
    03:00 +19°C° 0.1 mm 4 mps 738 mmHg 90%
    04:00 +19°C° 0.1 mm 4 mps 737 mmHg 90%
    05:00 +19°C° 0.1 mm 4 mps 737 mmHg 91%
    06:00 +19°C° 0.1 mm 4 mps 737 mmHg 90%
    07:00 +19°C° 0.1 mm 4 mps 737 mmHg 90%
    08:00 +19°C° 0.1 mm 4 mps 738 mmHg 90%
    09:00 +20°C° 0.1 mm 4 mps 738 mmHg 88%
    10:00 +20°C° 0.1 mm 4 mps 738 mmHg 87%
    11:00 +20°C° 0.1 mm 4 mps 738 mmHg 85%
    12:00 +21°C° 0.1 mm 4 mps 738 mmHg 83%
    13:00 +21°C° 0.1 mm 4 mps 737 mmHg 81%
    14:00 +22°C° 0.1 mm 4 mps 737 mmHg 80%
    15:00 +22°C° 0.1 mm 4 mps 737 mmHg 80%
    16:00 +22°C° 0.1 mm 4 mps 737 mmHg 80%
    17:00 +22°C° 0.1 mm 4 mps 737 mmHg 80%
    18:00 +22°C° 0.1 mm 3 mps 737 mmHg 82%
    19:00 +21°C° 0.1 mm 3 mps 737 mmHg 85%
    20:00 +21°C° 0.1 mm 3 mps 737 mmHg 87%
    21:00 +20°C° 0 mm 3 mps 737 mmHg 89%
    22:00 +20°C° 0 mm 3 mps 736 mmHg 91%
    23:00 +19°C° 0 mm 3 mps 736 mmHg 94%

    Day after tomorrow, 21 July, Saturday

    Time Temperature Precipitation Wind Pressure Humidity
    00:00 +19°C° 0 mm 3 mps 736 mmHg 94%
    01:00 +19°C° 0 mm 3 mps 736 mmHg 95%
    02:00 +19°C° 0 mm 3 mps 736 mmHg 95%
    03:00 +19°C° 0.1 mm 3 mps 736 mmHg 95%
    04:00 +19°C° 0.1 mm 4 mps 736 mmHg 94%
    05:00 +19°C° 0.1 mm 4 mps 737 mmHg 94%
    06:00 +20°C° 0.1 mm 4 mps 737 mmHg 93%
    07:00 +20°C° 0.1 mm 4 mps 737 mmHg 91%
    08:00 +20°C° 0.1 mm 4 mps 737 mmHg 90%
    09:00 +21°C° 0.2 mm 4 mps 737 mmHg 89%
    10:00 +21°C° 0.2 mm 4 mps 737 mmHg 88%
    11:00 +22°C° 0.2 mm 4 mps 737 mmHg 88%
    12:00 +22°C° 0.1 mm 4 mps 737 mmHg 85%
    13:00 +23°C° 0.1 mm 4 mps 737 mmHg 83%
    14:00 +25°C° 0.1 mm 4 mps 737 mmHg 81%
    15:00 +25°C° 0.3 mm 4 mps 737 mmHg 79%
    16:00 +26°C° 0.3 mm 3 mps 737 mmHg 78%
    17:00 +26°C° 0.3 mm 3 mps 737 mmHg 76%
    18:00 +25°C° 1 mm 3 mps 737 mmHg 81%
    19:00 +24°C° 1 mm 3 mps 737 mmHg 87%
    20:00 +22°C° 1 mm 3 mps 737 mmHg 92%
    21:00 +21°C° 1.1 mm 3 mps 737 mmHg 93%
    22:00 +21°C° 1.1 mm 3 mps 737 mmHg 94%
    23:00 +21°C° 1.1 mm 3 mps 737 mmHg 95%

    22 July, Sunday

    Time Temperature Precipitation Wind Pressure Humidity
    00:00 +20°C° 0.2 mm 3 mps 737 mmHg 96%
    01:00 +20°C° 0.2 mm 3 mps 737 mmHg 97%
    02:00 +20°C° 0.2 mm 3 mps 737 mmHg 97%
    03:00 +20°C° 0.4 mm 3 mps 737 mmHg 97%
    04:00 +20°C° 0.4 mm 3 mps 737 mmHg 97%
    05:00 +20°C° 0.4 mm 3 mps 737 mmHg 96%
    06:00 +20°C° 0.1 mm 3 mps 737 mmHg 95%
    07:00 +20°C° 0.1 mm 3 mps 737 mmHg 94%
    08:00 +20°C° 0.1 mm 3 mps 737 mmHg 93%
    09:00 +21°C° 0 mm 3 mps 737 mmHg 88%
    10:00 +22°C° 0 mm 3 mps 737 mmHg 84%
    11:00 +23°C° 0 mm 4 mps 738 mmHg 79%
    12:00 +25°C° 0 mm 4 mps 737 mmHg 75%
    13:00 +26°C° 0 mm 4 mps 737 mmHg 71%
    14:00 +27°C° 0 mm 4 mps 737 mmHg 66%
    15:00 +27°C° 0 mm 4 mps 737 mmHg 67%
    16:00 +27°C° 0 mm 4 mps 737 mmHg 68%
    17:00 +27°C° 0 mm 4 mps 737 mmHg 68%
    18:00 +25°C° 0 mm 3 mps 737 mmHg 75%
    19:00 +24°C° 0 mm 3 mps 737 mmHg 81%
    20:00 +21°C° 0 mm 2 mps 737 mmHg 88%
    21:00 +21°C° 0 mm 2 mps 737 mmHg 91%
    22:00 +20°C° 0 mm 2 mps 737 mmHg 94%
    23:00 +20°C° 0 mm 3 mps 737 mmHg 96%

    23 July, Monday

    Time Temperature Precipitation Wind Pressure Humidity
    00:00 +19°C° 0 mm 3 mps 737 mmHg 97%
    01:00 +19°C° 0 mm 3 mps 737 mmHg 97%
    02:00 +19°C° 0 mm 3 mps 737 mmHg 98%
    03:00 +20°C° 0.1 mm 3 mps 737 mmHg 97%
    04:00 +20°C° 0.1 mm 3 mps 737 mmHg 96%
    05:00 +20°C° 0.1 mm 4 mps 737 mmHg 94%
    06:00 +20°C° 0.1 mm 4 mps 737 mmHg 93%
    07:00 +20°C° 0.1 mm 4 mps 737 mmHg 92%
    08:00 +20°C° 0.1 mm 4 mps 737 mmHg 91%
    09:00 +20°C° 0 mm 4 mps 738 mmHg 90%
    10:00 +21°C° 0 mm 4 mps 738 mmHg 88%
    11:00 +21°C° 0 mm 4 mps 738 mmHg 87%
    12:00 +21°C° 0 mm 4 mps 738 mmHg 85%
    13:00 +21°C° 0 mm 4 mps 738 mmHg 83%
    14:00 +22°C° 0 mm 3 mps 738 mmHg 82%
    15:00 +22°C° 0 mm 3 mps 738 mmHg 79%
    16:00 +24°C° 0 mm 3 mps 738 mmHg 76%
    17:00 +25°C° 0 mm 3 mps 738 mmHg 74%
    18:00 +24°C° 0 mm 3 mps 738 mmHg 79%
    19:00 +23°C° 0 mm 2 mps 738 mmHg 84%
    20:00 +21°C° 0 mm 2 mps 738 mmHg 89%
    21:00 +20°C° 0.8 mm 2 mps 738 mmHg 91%
    22:00 +20°C° 0.8 mm 3 mps 738 mmHg 93%
    23:00 +19°C° 0.8 mm 3 mps 738 mmHg 96%

    24 July, Tuesday

    Time Temperature Precipitation Wind Pressure Humidity
    00:00 +19°C° 0.3 mm 3 mps 738 mmHg 96%
    01:00 +19°C° 0.3 mm 3 mps 739 mmHg 96%
    02:00 +19°C° 0.3 mm 3 mps 739 mmHg 96%
    03:00 +19°C° 0 mm 3 mps 739 mmHg 96%
    04:00 +19°C° 0 mm 3 mps 739 mmHg 95%
    05:00 +19°C° 0 mm 3 mps 739 mmHg 94%
    06:00 +19°C° 0 mm 3 mps 739 mmHg 93%
    07:00 +19°C° 0 mm 3 mps 739 mmHg 92%
    08:00 +20°C° 0 mm 3 mps 740 mmHg 90%
    09:00 +20°C° 0 mm 3 mps 740 mmHg 87%
    10:00 +21°C° 0 mm 3 mps 740 mmHg 84%
    11:00 +22°C° 0 mm 3 mps 740 mmHg 80%
    12:00 +24°C° 0.1 mm 3 mps 740 mmHg 78%
    13:00 +24°C° 0.1 mm 3 mps 740 mmHg 76%
    14:00 +25°C° 0.1 mm 3 mps 740 mmHg 74%
    15:00 +25°C° 0.5 mm 3 mps 740 mmHg 76%
    16:00 +25°C° 0.5 mm 3 mps 740 mmHg 78%
    17:00 +25°C° 0.5 mm 3 mps 740 mmHg 80%
    18:00 +24°C° 0.1 mm 3 mps 740 mmHg 83%
    19:00 +22°C° 0.1 mm 3 mps 741 mmHg 86%
    20:00 +20°C° 0.1 mm 2 mps 741 mmHg 89%
    21:00 +20°C° 0 mm 2 mps 741 mmHg 89%
    22:00 +19°C° 0 mm 2 mps 741 mmHg 90%
    23:00 +19°C° 0 mm 2 mps 741 mmHg 91%
    Show more